Location: �clusier
(49.9361°N, 2.7869°E)
Time: 20:37:04
(UTC+00:00)

Centaur D AC-29 - Pass Details

Date: 26 October 2021
Orbit: 563 x 36274 km, 26.9° (Epoch: 02 December)

Event Time Altitude Azimuth Distance (km) Brightness Sun altitude
Rises 22:55:44 0° 82° (E) 38,322 10.1 -51.7°
Reaches altitude 10° 00:15:26 10° 86° (E) 40,733 10.3 -51.5°
Maximum altitude 03:46:51 28° 94° (E) 29,757 10.1 -26.5°
Drops below altitude 10° 05:17:11 10° 84° (E) 16,630 9.7 -12.1°
Sets 05:29:49 0° 79° (E) 14,661 9.6 -10.0°
